Temperature
16 15 14 14 14 13 13 13 13 12 12 12 12 12 11 12 11 11 11 11 11 11 11 11 11 11 11 11 11 12 12 12 13 13 13 12 12 12 12 13 13 13 13
17 16 15 14 14 13 13 13 12 12 12 12 12 12 11 11 11 11 11 11 11 11 11 11 11 11 11 11 11 11 12 12 12 12 12 12 11 11 12 12 12 12 12
17 16 15 14 14 13 13 13 12 12 12 12 11 11 11 11 11 11 11 11 11 10 10 10 11 10 11 11 11 12 12 12 12 12 12 12 11 11 11 11 11 11 11
17 16 15 14 14 13 13 13 13 12 12 12 11 11 11 11 10 10 11 11 11 11 11 11 11 11 11 11 11 11 12 12 12 12 12 11 11 10 10 10 10 10 11
16 16 15 14 14 13 13 13 12 12 12 11 11 11 11 11 10 10 11 11 11 11 11 11 11 11 11 11 11 11 11 12 11 11 11 11 11 10 10 10 10 10 10
16 16 15 14 14 13 13 13 12 12 12 11 11 11 11 11 11 11 11 11 11 11 11 11 11 11 11 11 11 11 11 11 11 11 11 11 11 10 10 9 9 9 9
16 16 15 14 14 13 13 13 12 12 12 11 11 11 11 11 11 11 11 11 11 11 11 11 11 11 11 11 11 11 11 11 11 11 11 11 10 10 9 9 9 9 9
16 15 15 14 14 13 13 13 12 12 11 11 11 11 11 11 11 11 11 10 10 10 10 10 10 10 10 10 10 10 11 10 10 10 10 10 10 9 9 9 9 9 9
16 15 15 14 13 13 13 13 12 12 11 11 11 11 11 11 11 11 10 10 10 10 10 10 10 10 10 10 10 10 10 10 10 10 10 10 10 9 9 9 9 9 9
15 15 14 14 13 13 13 13 12 12 11 11 11 11 11 11 10 10 10 10 10 10 10 10 10 10 10 10 10 10 10 10 10 10 10 10 10 9 9 8 8 8 8
15 15 14 14 14 13 13 12 12 12 11 11 11 11 11 10 10 10 10 10 10 10 10 10 10 10 10 10 10 10 10 10 10 10 10 10 9 9 8 8 8 8 8
16 15 14 14 14 13 13 12 12 12 11 11 11 11 10 10 10 10 10 10 10 10 10 10 10 10 10 10 10 10 10 10 10 10 10 10 9 9 8 8 8 7 7
17 16 15 14 14 13 13 13 12 12 11 11 11 10 10 10 10 10 10 10 10 10 10 10 9 9 10 10 10 10 10 10 10 10 10 10 9 9 8 8 7 7 7
17 16 15 14 14 13 13 13 12 12 12 11 11 11 10 10 10 10 10 10 10 10 10 9 9 9 9 10 10 10 10 10 10 10 10 9 9 9 8 8 7 7 7
17 16 16 15 14 14 13 13 12 12 12 11 11 11 10 10 10 10 10 10 9 9 9 9 9 9 9 10 10 10 10 10 10 10 9 9 9 9 8 8 7 7 7
17 17 16 15 14 14 13 13 13 12 12 11 11 11 10 10 10 10 10 9 9 9 9 9 9 9 9 9 10 10 10 10 10 9 9 9 9 8 8 8 7 7 7
18 17 16 16 15 14 13 13 13 12 12 11 11 11 10 10 10 10 10 10 9 9 9 9 9 9 9 9 9 10 10 10 10 9 9 9 8 8 8 8 8 7 7
18 17 17 16 15 14 14 13 13 12 12 12 11 11 11 10 10 10 10 9 9 9 9 9 9 9 9 9 9 9 10 10 9 9 9 9 8 8 8 8 7 7 7
18 17 17 16 15 15 14 13 13 12 12 12 11 11 11 10 10 10 10 9 9 9 9 9 9 9 9 9 9 9 9 9 9 9 9 8 8 8 7 7 7 7 7
18 17 17 16 16 15 14 13 12 12 12 12 11 11 11 10 10 10 10 9 9 9 9 9 9 9 9 9 9 9 9 9 9 9 8 8 8 7 7 7 7 6 6
18 17 17 16 16 15 14 13 13 12 12 12 12 11 11 11 10 10 10 9 9 9 9 9 9 9 9 9 9 9 9 9 9 8 8 8 7 7 7 6 6 6 6
18 18 17 17 16 15 15 14 13 13 12 12 12 11 11 11 10 10 10 10 9 9 9 9 9 9 9 9 8 8 8 8 8 8 8 8 7 7 6 6 6 6 5
18 18 18 17 16 16 15 14 13 12 12 12 11 11 11 11 10 10 10 10 9 9 9 9 9 9 9 8 8 8 7 7 7 8 8 7 7 6 6 6 5 5 5
19 18 18 17 16 16 15 14 13 13 12 13 12 12 11 11 10 10 10 10 9 9 9 9 9 8 8 8 8 8 7 7 6 6 7 7 6 6 6 5 5 5 4
19 18 17 17 16 16 15 14 13 13 13 12 12 12 11 11 11 10 10 10 9 9 9 9 8 8 8 8 8 7 7 7 6 5 6 6 6 6 5 5 5 4 4
18 18 17 17 16 15 15 14 13 13 13 12 12 12 11 11 11 10 10 10 9 9 9 9 8 8 8 8 7 7 7 6 6 5 5 5 5 5 5 5 4 4 4
Wind_Speed
6 11 15 14 13 12 13 12 12 12 11 11 11 12 12 13 13 13 13 13 14 14 14 15 14 15 15 16 16 17 17 17 18 18 18 18 17 17 17 17 17 16 18
9 14 16 16 15 14 13 13 12 12 11 11 11 11 11 11 12 12 12 13 13 13 13 14 14 14 14 15 15 15 16 16 16 17 17 16 15 16 16 16 15 14 16
10 15 17 17 15 15 14 13 12 12 11 10 10 10 10 10 11 11 12 12 12 13 13 13 13 14 14 14 14 14 14 14 15 15 16 16 14 14 14 14 14 14 14
13 15 16 17 16 15 15 14 13 12 11 10 10 9 9 9 10 10 11 11 11 11 12 12 12 12 12 12 12 13 13 13 14 14 14 14 13 12 12 12 12 12 12
12 15 16 17 16 16 15 14 13 12 11 10 10 9 9 9 9 10 10 10 10 10 11 11 11 11 11 11 12 12 12 12 12 13 13 13 12 11 11 11 11 11 11
10 15 17 18 17 16 15 15 14 13 12 10 10 9 9 9 9 9 9 9 9 9 9 9 10 10 10 10 10 11 11 10 10 11 11 12 11 9 9 10 9 9 10
9 14 17 18 17 16 15 14 14 13 12 11 10 9 9 8 8 8 8 7 7 8 8 8 8 9 9 9 9 9 9 9 8 8 9 10 10 9 9 9 9 9 9
10 13 15 18 17 17 16 15 15 13 12 11 10 9 8 8 7 7 6 6 6 6 6 7 7 8 8 8 8 8 8 7 7 7 7 9 9 8 8 8 8 9 9
10 11 12 15 17 17 16 15 15 14 13 12 10 9 8 7 6 6 5 4 4 5 5 6 7 7 7 7 8 8 8 7 7 6 6 8 8 8 7 8 8 9 9
7 8 9 12 14 15 16 16 15 14 13 12 11 9 8 7 6 5 4 3 4 4 5 5 6 6 7 7 8 8 8 7 7 7 7 7 8 8 7 7 8 8 8
9 7 8 9 12 14 14 15 15 15 13 12 11 10 9 7 5 4 4 3 3 3 4 4 5 6 7 8 8 8 7 7 6 7 7 8 8 8 8 8 8 8 8
14 11 8 9 10 13 13 13 13 13 12 12 11 10 9 7 6 4 3 2 2 2 3 4 5 6 7 7 7 7 7 6 6 6 7 8 7 8 8 8 8 8 8
14 13 11 10 11 12 10 11 11 11 11 12 12 11 10 8 6 4 2 1 1 2 3 4 5 6 6 6 6 6 6 5 5 6 6 7 7 7 7 7 8 8 9
12 15 13 11 11 12 11 10 11 10 10 10 12 12 10 7 5 4 3 2 1 1 1 2 3 4 4 5 4 4 5 5 5 5 5 6 6 7 7 7 7 8 8
14 15 14 13 12 11 10 9 10 10 11 12 13 13 12 8 6 5 4 3 3 2 1 0 1 2 3 4 4 4 4 5 5 4 4 5 6 6 7 7 8 8 9
15 16 15 15 14 12 10 8 9 11 12 12 13 14 14 12 9 7 5 4 4 4 3 2 1 1 2 2 3 4 4 4 4 4 4 5 6 7 7 8 8 9 9
15 14 15 16 14 13 12 11 11 12 13 12 12 14 14 13 12 9 5 4 5 5 4 2 1 1 1 2 2 3 4 4 3 3 3 4 5 7 8 8 8 9 10
12 13 15 14 15 15 12 11 10 12 13 12 13 14 15 15 14 10 6 5 7 6 4 2 1 0 1 1 2 3 3 3 3 2 2 3 4 5 7 8 8 9 10
13 13 15 15 16 16 13 11 10 11 11 12 13 13 14 15 15 12 8 7 8 5 3 2 1 1 1 2 2 2 3 2 2 1 1 2 3 4 5 7 8 9 10
11 12 13 14 14 13 10 7 6 7 7 10 11 13 15 15 15 12 8 8 8 4 3 2 2 1 1 1 2 2 3 2 2 1 0 1 2 3 4 5 6 8 9
10 12 14 14 13 12 10 10 9 9 8 7 10 14 15 15 15 12 8 7 7 5 5 5 3 2 1 0 1 3 3 2 1 1 1 0 1 1 2 4 5 6 7
11 13 13 15 14 14 12 10 7 6 6 6 7 10 14 15 14 12 9 7 7 5 5 5 4 3 1 2 2 1 3 4 3 1 2 2 2 2 3 4 5 6 7
10 13 13 14 14 14 12 7 5 4 3 4 6 7 10 14 14 13 12 9 8 7 7 7 6 6 4 2 2 3 2 4 3 3 3 2 3 2 3 5 6 7 8
10 10 11 12 13 13 12 11 11 10 9 10 8 8 8 12 13 14 13 11 9 7 7 7 7 5 5 4 2 2 3 3 3 3 3 3 4 4 5 5 6 8 9
7 8 9 10 11 12 13 14 13 12 10 6 5 8 8 8 11 12 12 11 9 7 8 8 7 7 6 5 4 3 3 2 3 4 5 4 4 4 5 5 7 8 10
5 6 7 9 10 11 13 13 14 13 11 8 8 9 8 7 7 9 10 10 9 8 9 9 8 8 7 6 5 5 4 4 4 5 6 6 5 4 4 5 5 7 9
Wind_Direction
193 185 173 163 158 150 141 129 121 115 109 102 95 91 87 84 81 79 75 73 70 67 66 64 62 62 62 62 61 60 58 58 56 53 50 51 54 55 53 51 48 43 46
161 175 172 164 160 153 144 134 127 122 115 107 100 94 90 86 84 82 78 75 72 69 68 66 65 63 62 61 60 60 60 59 57 53 47 40 45 54 53 50 49 47 45
151 169 170 164 160 153 146 139 134 129 122 114 106 100 94 90 88 85 81 77 74 71 69 67 65 63 61 61 61 59 60 58 54 50 41 31 32 50 52 50 49 47 45
154 163 165 164 160 155 149 143 140 134 128 121 114 108 103 97 93 90 85 80 76 73 71 68 66 64 62 60 60 61 61 57 53 47 37 28 23 43 48 47 45 45 43
153 160 165 165 162 159 154 150 145 140 135 129 120 114 111 106 99 94 88 82 78 75 73 69 66 64 63 61 60 61 60 55 51 44 34 24 17 36 43 42 39 38 36
154 161 168 168 166 162 159 156 151 146 142 136 127 120 115 110 105 98 92 86 81 77 74 69 65 63 62 59 58 58 57 54 49 39 27 17 8 24 35 35 32 30 28
157 165 172 172 170 166 162 159 156 153 148 144 138 131 124 118 112 105 99 92 84 78 73 67 63 61 59 56 56 54 52 50 46 32 18 6 1 18 23 24 23 19 17
158 166 176 176 172 169 165 163 161 159 156 153 149 142 135 129 123 116 110 100 90 82 74 67 64 60 56 53 50 48 46 45 39 24 7 355 357 11 14 15 13 9 9
159 165 178 179 173 171 170 168 167 165 164 161 158 152 145 138 134 126 118 107 94 80 71 66 61 54 49 46 43 43 43 42 35 15 358 346 348 1 5 5 3 2 0
162 170 178 176 171 172 173 173 172 171 171 168 163 157 152 145 136 127 119 109 96 83 73 61 50 43 41 37 34 34 39 36 25 9 354 342 346 355 357 357 357 357 357
182 183 180 175 173 173 175 179 176 175 174 171 165 161 153 143 134 126 126 119 106 87 70 54 44 38 35 29 26 28 31 24 12 0 346 339 346 352 354 355 357 356 355
193 191 186 180 176 174 178 178 175 174 174 170 166 163 157 153 149 145 147 135 107 75 54 44 39 34 29 21 17 20 19 12 6 350 339 339 345 348 350 356 357 355 355
193 192 190 186 181 177 175 172 172 173 171 169 169 168 164 158 156 156 157 152 110 70 45 33 30 23 19 13 10 11 11 8 359 346 340 343 346 347 349 353 356 356 354
190 196 193 187 183 183 178 176 175 175 174 174 175 175 168 164 166 169 173 182 171 154 83 33 19 8 10 12 9 7 6 2 352 346 344 351 355 353 354 355 358 356 354
196 198 195 189 188 185 181 182 182 183 184 184 181 183 181 176 177 179 187 194 202 197 189 319 0 3 5 2 5 9 360 352 349 349 351 2 7 6 5 4 2 359 357
202 200 195 194 192 186 187 188 188 189 187 186 188 189 189 186 183 182 189 197 210 211 209 209 226 1 354 354 358 360 353 350 351 358 4 12 17 18 16 12 7 3 358
203 198 195 196 192 190 192 193 191 190 188 190 194 195 193 191 189 188 188 198 213 211 198 177 147 57 11 359 346 349 351 348 351 0 14 27 28 25 21 16 10 4 357
198 196 196 196 194 195 195 193 191 190 191 195 195 196 197 197 194 190 190 201 206 194 181 162 153 137 325 334 325 328 343 343 349 359 33 42 42 35 27 23 16 7 356
199 195 194 194 194 196 194 192 191 189 193 196 195 196 200 199 197 193 196 202 195 182 179 176 158 170 252 304 307 323 331 331 335 1 48 60 62 53 38 25 19 8 357
198 195 194 194 194 190 186 181 182 189 196 197 198 201 200 200 198 194 196 197 186 175 181 176 174 168 205 270 320 331 323 321 336 354 339 72 68 55 38 21 11 2 353
192 192 193 193 190 182 184 188 191 201 201 201 204 204 201 199 196 193 193 189 184 189 193 181 167 176 212 127 38 341 329 322 322 317 335 326 15 22 11 356 348 345 339
197 197 196 196 190 188 192 189 188 184 194 201 199 202 203 200 198 197 193 191 190 189 187 183 172 168 189 146 138 71 330 328 316 294 295 260 272 309 317 317 321 322 322
202 199 198 196 192 192 184 169 150 143 147 179 199 205 204 202 201 200 198 194 192 189 195 196 187 180 194 198 175 160 180 251 295 300 279 266 270 268 283 295 297 299 303
212 201 196 192 191 188 179 180 182 191 201 204 200 201 198 200 202 203 201 197 194 193 197 199 193 189 177 196 203 210 201 182 206 291 297 279 271 263 264 278 285 287 290
207 197 194 188 190 186 186 190 194 203 209 197 186 194 200 201 203 204 202 198 198 199 202 198 190 193 191 190 189 185 199 211 204 215 272 291 293 264 256 261 269 274 281
192 189 187 188 194 189 191 194 199 204 201 192 195 200 205 204 204 204 203 202 202 201 203 204 200 197 200 199 197 188 183 188 201 203 236 263 279 275 268 258 256 262 269
Height
1531 1532 1535 1537 1538 1540 1541 1541 1542 1542 1543 1543 1543 1543 1543 1543 1543 1543 1543 1542 1542 1542 1541 1541 1541 1541 1541 1540 1540 1540 1539 1539 1539 1539 1539 1539 1539 1538 1539 1538 1538 1538 1538
1530 1532 1534 1536 1538 1540 1541 1542 1542 1543 1543 1543 1544 1544 1544 1544 1544 1544 1543 1543 1543 1543 1542 1542 1542 1542 1542 1541 1541 1541 1540 1540 1540 1540 1539 1539 1539 1539 1539 1539 1538 1538 1538
1530 1532 1534 1536 1538 1539 1541 1542 1542 1543 1543 1544 1544 1544 1544 1544 1544 1544 1544 1544 1544 1544 1543 1543 1543 1543 1542 1542 1542 1542 1541 1541 1541 1540 1540 1540 1540 1540 1539 1539 1539 1538 1538
1530 1532 1534 1536 1538 1539 1540 1542 1542 1543 1543 1544 1544 1544 1545 1545 1545 1545 1545 1544 1544 1544 1544 1544 1544 1543 1543 1543 1543 1542 1542 1542 1541 1541 1541 1540 1540 1540 1540 1539 1539 1539 1538
1530 1532 1534 1536 1538 1539 1541 1542 1542 1543 1544 1544 1545 1545 1545 1545 1545 1546 1545 1545 1545 1545 1545 1545 1544 1544 1544 1544 1543 1543 1543 1542 1542 1542 1541 1541 1541 1541 1540 1540 1539 1539 1538
1530 1532 1534 1536 1538 1539 1541 1542 1543 1543 1544 1545 1545 1546 1546 1546 1546 1546 1546 1546 1546 1546 1546 1546 1545 1545 1545 1545 1544 1544 1543 1543 1543 1542 1542 1541 1541 1541 1541 1540 1539 1539 1539
1530 1532 1534 1536 1538 1539 1541 1542 1543 1543 1544 1545 1545 1546 1547 1547 1547 1547 1547 1547 1547 1547 1547 1546 1546 1546 1546 1545 1545 1545 1544 1544 1543 1543 1542 1542 1541 1541 1540 1540 1539 1539 1538
1530 1531 1533 1536 1537 1539 1540 1541 1542 1543 1544 1545 1546 1546 1547 1547 1548 1548 1548 1548 1548 1547 1547 1547 1547 1547 1546 1546 1545 1545 1544 1544 1543 1543 1542 1541 1541 1540 1540 1539 1539 1538 1538
1529 1531 1533 1535 1537 1539 1540 1541 1542 1543 1544 1545 1546 1547 1547 1548 1548 1548 1548 1548 1548 1548 1548 1548 1547 1547 1547 1546 1546 1545 1544 1544 1543 1542 1542 1541 1540 1540 1539 1539 1538 1537 1537
1528 1530 1532 1534 1536 1537 1539 1541 1542 1543 1544 1545 1546 1547 1547 1548 1548 1548 1548 1548 1548 1548 1548 1548 1548 1547 1547 1546 1545 1545 1544 1544 1543 1542 1541 1541 1540 1539 1539 1538 1537 1536 1536
1526 1528 1530 1532 1534 1536 1538 1540 1541 1542 1543 1545 1545 1546 1547 1547 1548 1548 1549 1549 1549 1548 1548 1548 1548 1547 1547 1546 1545 1545 1544 1543 1542 1541 1541 1540 1539 1539 1538 1537 1536 1535 1535
1523 1525 1528 1530 1533 1535 1537 1538 1540 1541 1543 1544 1545 1545 1546 1547 1548 1548 1548 1548 1548 1548 1548 1548 1547 1547 1546 1546 1545 1544 1543 1542 1541 1541 1540 1539 1538 1537 1537 1536 1535 1534 1533
1520 1523 1525 1528 1530 1533 1535 1537 1538 1540 1541 1543 1544 1545 1545 1546 1547 1548 1548 1548 1548 1548 1548 1547 1547 1546 1546 1545 1544 1543 1542 1542 1541 1540 1539 1538 1537 1536 1535 1535 1534 1533 1532
1518 1520 1523 1525 1528 1530 1533 1535 1536 1538 1540 1541 1542 1543 1544 1545 1546 1547 1547 1547 1547 1547 1547 1547 1546 1546 1545 1544 1543 1543 1542 1540 1539 1538 1537 1536 1535 1534 1534 1533 1532 1531 1530
1515 1517 1520 1523 1525 1528 1530 1532 1534 1536 1538 1539 1541 1542 1543 1544 1545 1546 1546 1546 1547 1547 1546 1546 1546 1545 1544 1543 1542 1541 1540 1539 1538 1537 1536 1535 1534 1533 1532 1531 1530 1529 1528
1511 1514 1517 1519 1522 1525 1527 1530 1532 1534 1536 1537 1539 1540 1541 1543 1544 1544 1545 1545 1545 1545 1545 1545 1544 1544 1543 1542 1541 1540 1539 1538 1536 1535 1534 1533 1532 1531 1530 1529 1528 1527 1526
1507 1510 1513 1516 1519 1521 1524 1527 1529 1531 1533 1535 1537 1538 1539 1541 1542 1542 1543 1544 1544 1544 1544 1543 1543 1542 1542 1541 1540 1538 1537 1536 1535 1533 1532 1531 1530 1529 1528 1527 1526 1525 1524
1504 1506 1509 1512 1515 1517 1520 1523 1526 1528 1530 1532 1534 1536 1537 1538 1539 1540 1541 1541 1542 1542 1542 1542 1541 1541 1540 1539 1538 1537 1535 1534 1533 1531 1530 1530 1529 1528 1527 1525 1524 1522 1521
1499 1502 1505 1507 1510 1513 1517 1520 1523 1525 1527 1529 1531 1532 1534 1535 1536 1537 1538 1539 1540 1540 1540 1539 1539 1538 1538 1537 1536 1534 1533 1532 1531 1530 1529 1528 1527 1526 1524 1523 1521 1520 1518
1494 1497 1500 1503 1506 1509 1513 1516 1519 1521 1523 1525 1527 1529 1531 1532 1533 1534 1535 1536 1537 1537 1537 1537 1537 1536 1535 1534 1533 1532 1531 1529 1528 1527 1527 1526 1525 1524 1522 1520 1519 1517 1515
1489 1492 1495 1498 1501 1504 1507 1510 1513 1515 1518 1521 1523 1525 1527 1529 1530 1531 1532 1533 1533 1534 1534 1534 1534 1533 1533 1532 1531 1529 1528 1527 1526 1525 1524 1523 1522 1521 1519 1517 1516 1514 1512
1484 1486 1489 1492 1496 1499 1502 1505 1508 1511 1514 1516 1519 1521 1523 1525 1526 1527 1528 1529 1530 1530 1530 1530 1530 1530 1529 1529 1528 1526 1525 1524 1522 1522 1521 1520 1519 1518 1516 1514 1512 1510 1508
1479 1481 1484 1488 1491 1494 1497 1501 1504 1507 1509 1512 1513 1516 1518 1520 1522 1523 1524 1525 1526 1526 1526 1526 1527 1526 1526 1525 1525 1524 1522 1520 1519 1517 1516 1516 1515 1514 1512 1510 1508 1506 1504
1474 1477 1480 1483 1486 1489 1493 1496 1498 1500 1502 1505 1508 1510 1513 1515 1517 1518 1519 1520 1521 1521 1522 1522 1522 1522 1522 1521 1520 1520 1519 1518 1516 1513 1512 1511 1510 1509 1507 1506 1504 1502 1500
1471 1473 1476 1479 1482 1485 1488 1490 1493 1495 1498 1501 1503 1505 1508 1510 1511 1513 1514 1515 1516 1516 1517 1517 1517 1517 1517 1516 1516 1515 1514 1513 1512 1510 1506 1505 1504 1503 1502 1501 1499 1497 1495
1467 1469 1472 1475 1477 1480 1483 1485 1488 1490 1493 1495 1497 1499 1502 1503 1505 1507 1508 1509 1510 1511 1511 1512 1512 1511 1511 1511 1510 1509 1509 1508 1506 1505 1502 1499 1497 1497 1496 1495 1493 1491 1489